カタログに戻る

TITAN 3C TRANSTAGE DEB

運用中HEO
NORAD 21692·DEBRIS·🇺🇸 United States

打ち上げ Dec 21, 1965 から Cape Canaveral Space Force Station

Loading…

次のパス (今後24時間)

TLE

経年Source: Space-Track

元期: Aug 29, 2026, 06:53 UTC

1 21692U 65108AF  26241.28736784  .00000219  00000-0  11098-2 0  9993
2 21692  27.5922 123.0506 6150039 223.1162 346.8786  3.60877574167134

AllMySatでTITAN 3C TRANSTAGE DEBをリアルタイム追跡

Download on the App Store